When you browse on this site, cookies collect data to enhance your experience and personalize the content and advertising you see.
Visit our Privacy Policy to learn more. By continuing to use the site, you agree to this use of cookies and data.
  • In Latvia
  • List of Countries
  • For 7 days
  • Water Temperature
  • Weather Map
  • Weather Widgets
  • user-avatar
    Login

    Hourly Weather Mazyr

    Today, 11 December, Wednesday

    Time Temperature Precipitation Wind Pressure Humidity
    00:00 +2°C° 0 mm 2 mps 748 mmHg 91%
    01:00 +2°C° 0 mm 2 mps 749 mmHg 89%
    02:00 +2°C° 0 mm 2 mps 749 mmHg 87%
    03:00 +1°C° 0 mm 2 mps 749 mmHg 88%
    04:00 -1°C° 0 mm 2 mps 749 mmHg 90%
    05:00 -2°C° 0 mm 2 mps 749 mmHg 91%
    06:00 -1°C° 0 mm 2 mps 749 mmHg 91%
    07:00 +1°C° 0 mm 1 mps 750 mmHg 91%
    08:00 +1°C° 0 mm 1 mps 750 mmHg 91%
    09:00 +1°C° 0 mm 1 mps 750 mmHg 88%
    10:00 +2°C° 0 mm 1 mps 750 mmHg 85%
    11:00 +3°C° 0 mm 1 mps 750 mmHg 82%
    12:00 +3°C° 0 mm 1 mps 750 mmHg 81%
    13:00 +4°C° 0 mm 1 mps 750 mmHg 79%
    14:00 +4°C° 0 mm 1 mps 751 mmHg 77%
    15:00 +3°C° 0 mm 1 mps 750 mmHg 81%
    16:00 +2°C° 0 mm 1 mps 750 mmHg 85%
    17:00 -1°C° 0 mm 2 mps 750 mmHg 89%
    18:00 -1°C° 0 mm 2 mps 750 mmHg 89%
    19:00 -1°C° 0 mm 2 mps 750 mmHg 90%
    20:00 -2°C° 0 mm 2 mps 750 mmHg 90%
    21:00 -2°C° 0 mm 2 mps 750 mmHg 91%
    22:00 -2°C° 0 mm 2 mps 750 mmHg 91%
    23:00 -2°C° 0 mm 2 mps 750 mmHg 91%

    Tomorrow, 12 December, Thursday

    Time Temperature Precipitation Wind Pressure Humidity
    00:00 -2°C° 0 mm 3 mps 750 mmHg 93%
    01:00 -1°C° 0 mm 3 mps 750 mmHg 94%
    02:00 -1°C° 0 mm 3 mps 750 mmHg 95%
    03:00 -1°C° 0 mm 4 mps 749 mmHg 95%
    04:00 -1°C° 0 mm 4 mps 748 mmHg 94%
    05:00 0°C° 0 mm 4 mps 748 mmHg 94%
    06:00 0°C° 0 mm 4 mps 748 mmHg 94%
    07:00 0°C° 0 mm 4 mps 748 mmHg 94%
    08:00 +1°C° 0 mm 3 mps 748 mmHg 94%
    09:00 +1°C° 0 mm 4 mps 748 mmHg 92%
    10:00 +1°C° 0 mm 4 mps 748 mmHg 91%
    11:00 +1°C° 0 mm 4 mps 747 mmHg 89%
    12:00 +1°C° 0 mm 4 mps 747 mmHg 88%
    13:00 +3°C° 0 mm 4 mps 747 mmHg 87%
    14:00 +3°C° 0 mm 4 mps 747 mmHg 86%
    15:00 +1°C° 0 mm 4 mps 747 mmHg 88%
    16:00 0°C° 0 mm 4 mps 746 mmHg 90%
    17:00 0°C° 0 mm 3 mps 746 mmHg 91%
    18:00 -1°C° 0 mm 4 mps 746 mmHg 91%
    19:00 -1°C° 0 mm 4 mps 746 mmHg 90%
    20:00 -1°C° 0 mm 5 mps 746 mmHg 90%
    21:00 -1°C° 0 mm 5 mps 745 mmHg 91%
    22:00 -1°C° 0 mm 4 mps 745 mmHg 91%
    23:00 -2°C° 0 mm 4 mps 745 mmHg 92%

    Day after tomorrow, 13 December, Friday

    Time Temperature Precipitation Wind Pressure Humidity
    00:00 -1°C° 0 mm 5 mps 745 mmHg 92%
    01:00 -1°C° 0 mm 5 mps 744 mmHg 92%
    02:00 -1°C° 0 mm 5 mps 744 mmHg 91%
    03:00 -1°C° 0 mm 5 mps 744 mmHg 91%
    04:00 -1°C° 0 mm 5 mps 743 mmHg 90%
    05:00 -1°C° 0 mm 5 mps 743 mmHg 90%
    06:00 -1°C° 0 mm 5 mps 743 mmHg 88%
    07:00 -2°C° 0 mm 6 mps 742 mmHg 87%
    08:00 -2°C° 0 mm 6 mps 742 mmHg 86%
    09:00 -2°C° 0 mm 6 mps 742 mmHg 84%
    10:00 -2°C° 0 mm 6 mps 742 mmHg 82%
    11:00 -2°C° 0 mm 7 mps 741 mmHg 80%
    12:00 -2°C° 0 mm 6 mps 741 mmHg 79%
    13:00 -1°C° 0 mm 6 mps 741 mmHg 78%
    14:00 -1°C° 0 mm 6 mps 740 mmHg 77%
    15:00 -1°C° 0 mm 6 mps 740 mmHg 77%
    16:00 -1°C° 0 mm 6 mps 740 mmHg 77%
    17:00 -1°C° 0 mm 6 mps 740 mmHg 78%
    18:00 -1°C° 0 mm 6 mps 740 mmHg 78%
    19:00 -1°C° 0 mm 6 mps 740 mmHg 79%
    20:00 -2°C° 0 mm 6 mps 740 mmHg 80%
    21:00 -2°C° 0 mm 6 mps 740 mmHg 80%
    22:00 -1°C° 0 mm 5 mps 740 mmHg 81%
    23:00 -1°C° 0 mm 5 mps 740 mmHg 81%

    14 December, Saturday

    Time Temperature Precipitation Wind Pressure Humidity
    00:00 -2°C° 0 mm 6 mps 740 mmHg 81%
    01:00 -1°C° 0 mm 6 mps 740 mmHg 80%
    02:00 -1°C° 0 mm 6 mps 740 mmHg 80%
    03:00 -1°C° 0 mm 6 mps 740 mmHg 81%
    04:00 -1°C° 0 mm 6 mps 740 mmHg 82%
    05:00 -1°C° 0 mm 5 mps 740 mmHg 83%
    06:00 -1°C° 0 mm 5 mps 740 mmHg 83%
    07:00 -1°C° 0 mm 5 mps 740 mmHg 83%
    08:00 0°C° 0 mm 5 mps 740 mmHg 83%
    09:00 0°C° 0 mm 5 mps 740 mmHg 82%
    10:00 -1°C° 0 mm 6 mps 740 mmHg 81%
    11:00 +1°C° 0 mm 6 mps 740 mmHg 80%
    12:00 +1°C° 0 mm 6 mps 740 mmHg 81%
    13:00 +1°C° 0 mm 6 mps 740 mmHg 81%
    14:00 +1°C° 0 mm 6 mps 739 mmHg 82%
    15:00 +1°C° 0.1 mm 5 mps 739 mmHg 83%
    16:00 +1°C° 0.1 mm 5 mps 739 mmHg 85%
    17:00 +1°C° 0.1 mm 5 mps 739 mmHg 86%
    18:00 +1°C° 0.2 mm 6 mps 739 mmHg 87%
    19:00 +2°C° 0.2 mm 6 mps 739 mmHg 88%
    20:00 +2°C° 0.2 mm 6 mps 739 mmHg 89%
    21:00 +2°C° 0 mm 5 mps 739 mmHg 90%
    22:00 +2°C° 0 mm 5 mps 738 mmHg 90%
    23:00 +3°C° 0 mm 5 mps 738 mmHg 91%

    15 December, Sunday

    Time Temperature Precipitation Wind Pressure Humidity
    00:00 +4°C° 0.3 mm 4 mps 738 mmHg 92%
    01:00 +4°C° 0.3 mm 4 mps 738 mmHg 93%
    02:00 +5°C° 0.3 mm 4 mps 738 mmHg 94%
    03:00 +4°C° 0.1 mm 4 mps 738 mmHg 93%
    04:00 +4°C° 0.1 mm 4 mps 738 mmHg 92%
    05:00 +4°C° 0.1 mm 3 mps 739 mmHg 91%
    06:00 +3°C° 0 mm 4 mps 739 mmHg 90%
    07:00 +3°C° 0 mm 4 mps 740 mmHg 89%
    08:00 +1°C° 0 mm 4 mps 740 mmHg 88%
    09:00 +3°C° 0 mm 4 mps 740 mmHg 81%
    10:00 +2°C° 0 mm 5 mps 741 mmHg 74%
    11:00 +3°C° 0 mm 5 mps 741 mmHg 68%
    12:00 +3°C° 0 mm 6 mps 742 mmHg 68%
    13:00 +3°C° 0 mm 6 mps 742 mmHg 68%
    14:00 +3°C° 0 mm 6 mps 742 mmHg 69%
    15:00 +2°C° 0 mm 6 mps 743 mmHg 66%
    16:00 +1°C° 0 mm 5 mps 743 mmHg 63%
    17:00 +1°C° 0 mm 5 mps 744 mmHg 60%
    18:00 0°C° 0 mm 4 mps 745 mmHg 61%
    19:00 0°C° 0 mm 4 mps 745 mmHg 61%
    20:00 0°C° 0 mm 3 mps 746 mmHg 62%
    21:00 0°C° 0 mm 3 mps 746 mmHg 68%
    22:00 0°C° 0 mm 3 mps 746 mmHg 73%
    23:00 0°C° 0 mm 3 mps 746 mmHg 79%

    16 December, Monday

    Time Temperature Precipitation Wind Pressure Humidity
    00:00 0°C° 0 mm 4 mps 746 mmHg 80%
    01:00 0°C° 0 mm 4 mps 746 mmHg 80%
    02:00 +1°C° 0 mm 5 mps 746 mmHg 80%
    03:00 +1°C° 0.1 mm 5 mps 745 mmHg 79%
    04:00 +2°C° 0.1 mm 5 mps 745 mmHg 77%
    05:00 +2°C° 0.1 mm 5 mps 745 mmHg 76%
    06:00 +2°C° 0 mm 5 mps 745 mmHg 78%
    07:00 +2°C° 0 mm 5 mps 746 mmHg 79%
    08:00 +2°C° 0 mm 5 mps 746 mmHg 81%
    09:00 +2°C° 0 mm 5 mps 747 mmHg 78%
    10:00 +3°C° 0 mm 5 mps 748 mmHg 75%
    11:00 +3°C° 0 mm 5 mps 748 mmHg 72%
    12:00 +3°C° 0 mm 5 mps 748 mmHg 68%
    13:00 +3°C° 0 mm 5 mps 749 mmHg 65%
    14:00 +4°C° 0 mm 4 mps 749 mmHg 61%
    15:00 +3°C° 0 mm 4 mps 749 mmHg 65%
    16:00 +3°C° 0 mm 3 mps 750 mmHg 69%
    17:00 +2°C° 0 mm 3 mps 750 mmHg 73%
    18:00 +1°C° 0 mm 3 mps 750 mmHg 75%
    19:00 +2°C° 0 mm 2 mps 750 mmHg 77%
    20:00 +2°C° 0 mm 2 mps 750 mmHg 78%
    21:00 +2°C° 0 mm 2 mps 751 mmHg 78%
    22:00 +2°C° 0 mm 2 mps 751 mmHg 77%
    23:00 +2°C° 0 mm 2 mps 751 mmHg 77%
    Show more